Theta_e
283 283 283 283 282 282 281 281 281 281 281 280 280 279 279 280 280 279 279 279 278 278 277 277 277 276 276 276 275 275 274 274 274 273 273 273 273 274 273 273 272 272 273 272 273 273 273 273 273 273 273 273 273 274 273 273 273 274 274 274 274 273 272 272 270 270 273 274 274 274 274 274 273 274 273 273 274 274 276 275 275 275 275 275 276
283 283 282 282 281 281 281 281 281 281 280 280 279 279 279 279 279 279 278 278 278 278 277 277 277 276 276 275 275 274 274 273 273 272 272 272 273 275 273 272 272 272 272 272 272 274 272 272 272 272 273 272 272 272 272 272 272 272 272 273 272 273 272 272 271 270 270 272 272 273 273 274 272 274 272 272 273 274 273 274 275 275 275 275 275
283 283 282 281 281 281 281 281 280 280 280 279 279 279 279 278 278 278 278 277 277 277 277 276 276 276 275 275 274 273 273 272 272 272 272 271 271 271 272 271 272 271 272 272 272 272 272 272 272 272 273 271 272 271 272 271 272 271 271 272 271 271 272 272 271 269 269 270 272 271 272 272 272 272 273 273 274 274 273 273 274 275 275 275 275
282 282 281 281 281 280 280 280 280 279 279 279 279 278 278 278 278 277 277 277 277 276 276 276 276 275 275 274 273 273 273 272 272 272 272 271 271 271 271 271 271 271 272 272 272 272 272 271 272 272 271 271 271 271 271 271 271 271 271 271 271 271 271 271 271 270 269 268 270 270 271 271 272 272 273 273 273 273 273 273 274 274 274 275 275
282 282 281 280 280 280 280 280 279 279 279 278 278 278 277 277 277 276 276 276 276 276 275 275 275 275 275 273 273 272 272 272 272 271 271 271 271 271 271 271 272 272 272 272 275 272 272 272 271 272 271 270 270 270 271 270 271 271 270 271 271 271 272 271 271 271 269 268 269 271 272 271 272 272 272 271 272 273 273 273 273 273 274 274 275
282 281 281 280 280 280 280 279 279 279 278 278 277 277 277 277 276 276 277 276 275 275 275 275 276 275 274 273 273 272 272 271 271 271 270 271 271 271 271 271 272 272 272 272 272 272 272 272 272 272 271 270 270 270 270 270 270 270 270 270 271 271 270 271 271 271 271 270 270 269 271 270 271 271 272 272 271 271 272 273 274 274 274 273 274
281 281 281 280 280 280 279 279 279 278 278 277 277 276 276 276 277 276 277 276 275 275 276 276 275 274 273 272 272 272 271 271 270 270 270 270 270 271 271 271 272 272 272 272 272 272 272 272 271 272 271 271 270 270 269 270 270 269 270 270 271 270 271 271 271 271 271 270 270 270 270 271 272 271 273 274 273 272 271 272 272 274 274 274 273
281 281 280 280 280 280 280 279 278 278 277 277 276 276 276 276 277 277 276 276 275 275 275 275 274 274 273 272 272 271 270 270 270 269 270 270 271 271 271 271 271 272 272 272 272 272 272 272 272 272 271 271 271 270 271 270 270 269 270 270 271 272 272 271 271 271 270 270 270 270 270 270 271 273 273 273 272 272 273 273 271 272 273 275 275
281 281 280 280 280 280 279 279 278 277 277 277 276 276 276 276 276 277 276 276 276 275 275 275 273 273 272 272 271 271 271 271 271 270 270 271 271 271 271 270 270 270 271 271 271 271 271 271 272 272 272 276 277 276 276 276 271 267 268 270 271 271 271 271 271 271 271 270 270 271 271 271 271 271 271 271 271 271 274 274 273 274 274 274 275
281 280 280 280 280 279 279 278 278 278 277 277 277 276 276 276 276 276 276 276 275 275 274 273 272 272 272 272 271 271 271 271 273 276 276 272 271 272 271 270 270 270 270 270 270 270 271 271 272 276 276 276 276 276 276 276 276 275 272 272 272 272 270 270 270 270 271 270 270 270 270 270 271 272 271 272 274 274 274 274 272 273 274 274 275
281 280 280 280 280 279 279 279 278 278 278 278 277 276 276 275 275 276 275 275 274 273 273 273 273 272 272 271 270 270 270 271 276 278 278 278 273 271 270 270 270 270 270 269 269 269 269 270 270 272 274 274 273 275 275 276 276 276 277 277 276 274 272 272 272 272 271 271 272 272 271 271 272 273 273 273 274 274 274 274 273 273 272 271 270
281 281 281 280 280 279 279 279 279 278 278 278 277 277 276 276 275 275 274 274 273 273 273 273 272 272 271 270 269 269 270 274 277 279 280 279 277 272 270 269 269 271 271 270 270 270 269 270 270 270 270 269 270 270 273 274 275 275 276 276 277 277 278 275 274 273 273 272 272 272 272 271 272 273 273 274 274 274 274 274 274 273 272 272 272
281 281 281 281 280 280 280 279 279 278 278 277 277 276 276 275 275 274 274 274 273 272 272 272 271 271 270 269 269 269 269 276 278 279 280 280 280 276 273 272 272 271 272 271 271 271 270 270 269 270 270 274 272 270 269 269 273 275 276 277 277 278 278 279 279 276 275 273 272 272 273 273 273 273 274 274 275 273 274 273 274 274 274 273 273
281 281 281 281 280 280 280 279 279 278 278 277 276 276 275 275 275 274 274 273 273 273 272 271 271 270 270 269 269 268 268 274 278 280 280 280 280 278 274 274 273 272 272 272 272 272 271 269 268 268 269 269 269 270 270 269 269 270 271 272 273 275 277 278 277 277 277 275 274 272 274 274 273 274 275 276 275 273 273 272 273 272 271 270 272
281 281 281 280 280 279 279 279 279 278 278 277 276 275 275 274 274 274 273 273 272 272 271 271 270 269 268 268 268 268 268 275 278 280 280 280 279 278 274 274 273 272 273 273 273 273 271 270 268 268 268 268 269 270 269 270 271 272 273 274 275 275 275 274 275 275 275 275 274 274 274 275 275 275 276 276 275 274 273 272 272 272 272 273 273
281 281 281 280 280 280 280 280 279 278 277 277 276 276 275 274 274 273 273 273 272 272 271 270 270 268 268 267 267 267 267 276 277 279 280 280 279 276 274 273 272 272 272 272 272 271 270 269 269 268 268 268 272 275 275 274 274 274 274 274 273 273 274 276 277 277 276 275 275 275 275 276 278 276 275 275 274 273 273 273 273 272 271 269 269
281 281 281 280 280 280 280 280 279 278 277 276 276 276 275 274 274 273 272 273 272 271 270 269 268 268 267 267 267 267 266 273 277 278 279 280 278 274 273 272 272 271 271 270 270 269 269 269 269 269 268 268 272 276 277 277 275 274 273 271 272 273 273 273 276 277 277 277 278 278 278 277 277 277 276 276 274 273 271 269 268 269 267 266 268
281 281 281 280 280 280 280 279 279 278 277 276 275 276 275 275 274 273 272 272 271 270 269 267 267 267 267 266 267 266 266 270 276 278 279 280 278 272 272 271 270 270 269 270 269 269 269 272 272 270 269 270 274 276 278 277 275 273 272 272 272 272 272 272 272 273 276 276 276 275 274 273 273 273 272 274 274 273 268 266 268 269 267 267 266
281 281 281 281 280 280 279 279 279 278 277 276 276 276 276 275 274 272 272 271 270 268 267 267 266 265 266 266 269 267 265 268 275 277 279 280 278 272 271 269 268 268 268 269 269 269 269 271 273 273 273 273 276 277 278 278 274 274 274 273 272 271 271 271 270 271 271 269 267 266 266 268 267 267 267 272 272 271 269 269 269 268 266 266 266
282 281 281 280 280 280 279 279 279 278 278 277 276 277 276 273 272 271 270 269 268 267 267 267 266 266 265 265 265 267 265 264 267 277 278 279 279 273 271 269 268 268 268 268 267 267 268 269 272 275 277 277 278 279 279 279 276 275 274 272 271 269 271 271 272 270 267 265 264 264 265 265 265 266 266 266 268 268 269 269 268 267 265 265 265
280 280 280 279 279 279 279 279 279 279 278 278 277 274 273 272 270 269 268 267 266 265 266 266 265 265 264 265 264 265 266 265 265 274 277 279 279 277 271 270 269 267 266 267 267 267 268 269 270 274 276 277 278 278 278 278 277 276 274 271 271 272 274 270 268 268 264 263 262 262 263 263 263 264 265 266 267 267 267 268 268 267 266 265 265
280 279 278 279 279 279 279 279 279 279 277 275 273 273 271 271 270 269 267 266 266 266 265 265 264 264 263 263 263 264 265 267 264 271 276 278 279 280 273 270 270 267 267 267 268 268 268 269 270 274 276 277 277 278 278 277 278 275 273 275 276 276 273 266 264 262 260 260 260 261 261 261 261 262 263 264 265 266 266 267 268 268 268 268 267
278 278 278 278 278 278 279 278 278 277 275 274 274 273 270 269 268 267 267 266 266 265 265 264 264 263 263 263 263 263 263 264 270 267 272 277 278 279 279 275 275 271 268 268 268 268 269 270 272 275 276 277 277 277 277 278 276 274 275 275 275 275 269 264 262 259 258 259 259 259 260 260 260 261 262 263 265 265 266 266 267 268 268 269 269
277 278 278 278 278 277 277 277 277 276 275 274 273 272 270 269 267 267 267 266 266 265 265 264 263 263 263 264 263 263 263 263 267 272 270 274 277 279 280 280 278 273 271 269 269 270 271 272 273 276 276 277 277 277 277 276 275 275 275 275 275 271 264 260 258 257 259 258 258 259 259 260 260 261 262 263 264 265 266 266 267 267 268 268 268
277 277 277 277 277 277 276 276 275 275 274 273 273 272 269 268 267 266 265 266 266 266 266 264 264 264 264 264 265 264 263 263 263 267 273 274 276 278 279 280 280 279 274 272 272 272 274 276 276 276 277 277 277 278 275 274 274 273 273 274 272 261 260 258 257 256 256 258 258 259 259 260 261 263 264 265 265 265 265 265 266 266 266 266 267
276 277 276 276 276 275 274 274 273 273 272 273 273 273 271 268 269 266 266 266 266 266 266 264 264 264 264 265 265 265 264 263 263 263 267 272 274 276 277 279 279 279 278 275 275 276 276 277 277 277 277 277 275 270 267 266 271 272 273 271 261 259 258 256 256 256 257 258 259 259 260 261 262 263 264 264 263 262 263 263 264 264 264 264 264
276 274 275 275 273 273 275 274 272 270 270 270 270 271 270 269 269 267 266 266 266 266 266 265 265 264 265 265 266 264 263 263 264 264 264 265 268 271 274 275 278 278 277 276 277 276 276 276 275 276 275 275 274 274 272 271 266 263 262 261 259 257 258 257 257 257 258 258 259 260 260 261 262 262 261 261 261 262 264 264 263 263 264 264 263
274 273 272 270 271 270 273 270 270 270 269 269 270 269 268 269 269 268 267 267 267 267 267 266 266 266 266 267 264 262 263 263 264 264 265 265 267 269 270 271 273 274 274 275 274 274 273 275 275 273 270 266 263 259 258 259 260 260 259 258 257 259 262 265 265 259 258 258 259 259 259 259 259 259 260 260 261 262 263 263 263 263 263 263 262
270 268 268 268 269 268 269 269 270 270 268 267 269 270 270 268 269 270 270 267 269 269 268 268 268 268 267 266 265 264 264 264 266 269 267 270 267 267 267 269 270 271 273 275 272 271 270 269 268 268 266 264 262 260 258 256 257 257 256 255 255 255 255 255 254 257 257 256 257 258 258 258 259 259 259 260 260 261 262 262 262 262 262 262 261
267 268 269 269 269 267 268 267 267 268 267 267 266 266 268 272 270 268 268 271 273 274 273 269 268 265 266 267 267 267 267 268 271 273 274 274 274 274 273 273 273 272 273 276 274 269 269 268 268 267 266 265 263 261 260 257 257 256 255 261 259 255 256 256 255 257 257 257 257 257 257 258 258 259 259 260 261 261 263 265 262 261 260 260 260
268 269 268 269 269 268 267 267 266 266 266 266 265 266 265 266 274 275 274 272 273 275 276 276 276 274 269 266 269 274 274 274 274 275 275 276 276 276 276 275 275 275 275 273 272 270 268 268 267 267 266 265 264 263 260 258 257 256 257 255 255 257 259 256 255 256 257 257 257 257 257 257 258 259 259 260 260 261 261 260 259 260 260 260 260
270 270 269 267 268 268 266 267 265 265 264 264 264 263 264 265 265 271 275 276 275 275 276 276 277 277 277 274 269 267 273 276 276 276 276 277 277 277 277 277 277 277 277 276 271 270 269 268 267 266 265 263 263 262 260 258 257 257 256 255 257 255 257 256 257 257 255 255 256 257 257 257 258 258 259 260 261 261 261 261 260 260 260 260 260
270 267 267 267 267 267 266 265 265 265 264 263 262 262 263 263 265 265 267 274 276 276 276 277 277 277 278 278 277 273 272 274 276 276 276 277 277 277 278 278 278 278 278 274 272 270 268 268 267 266 264 264 263 261 259 258 258 257 255 257 257 258 257 258 259 258 256 256 256 257 257 257 258 259 260 260 260 260 261 261 260 260 260 260 260
267 266 266 266 266 265 265 265 265 264 264 264 263 263 263 264 264 263 262 261 265 271 275 277 277 277 277 278 277 277 276 275 275 276 276 277 277 278 278 276 278 279 277 273 273 271 269 267 267 266 264 263 262 260 258 257 257 257 256 258 257 257 257 255 255 257 255 256 255 256 257 257 258 257 257 258 259 260 260 261 260 260 260 260 260
263 265 267 266 264 265 264 264 264 263 262 263 262 263 263 263 263 263 262 262 263 264 263 268 274 277 275 275 276 277 277 277 276 276 276 277 277 277 278 274 273 274 275 274 273 271 269 267 266 265 264 262 260 259 259 258 257 256 257 257 254 256 256 254 255 256 255 254 254 255 256 257 256 257 258 258 259 259 260 260 260 260 260 260 261
262 263 263 264 263 262 262 263 263 263 262 262 262 262 261 261 263 262 261 262 262 261 260 262 265 272 275 276 276 276 277 278 277 276 276 277 277 277 273 272 272 272 271 272 270 268 268 268 267 266 264 262 260 259 259 258 258 257 256 255 256 254 254 253 255 254 254 254 255 257 258 256 256 257 256 257 258 259 260 261 260 260 261 261 261
261 261 262 261 260 261 261 260 261 261 264 262 261 260 261 260 260 259 259 260 260 258 259 257 260 261 268 266 269 272 274 275 277 277 277 277 278 276 274 272 271 271 269 270 269 267 266 265 264 264 262 262 261 260 258 258 258 257 258 257 255 254 254 252 253 255 254 254 254 254 253 255 255 255 256 256 258 259 260 260 260 261 261 262 262
259 260 259 258 259 259 258 258 259 265 262 260 259 261 259 259 259 259 259 259 259 259 259 258 263 259 260 262 268 267 266 270 271 271 272 273 272 272 272 270 269 269 268 268 268 267 266 266 264 263 263 261 260 259 258 258 257 257 256 255 254 255 258 258 259 256 254 253 254 254 254 255 255 255 257 256 257 258 259 259 259 259 260 261 260
258 265 267 267 266 259 257 259 260 258 258 259 258 259 259 258 257 257 257 257 258 259 260 261 261 261 261 263 263 265 266 264 264 264 265 266 267 268 267 268 268 268 268 268 267 266 266 266 264 263 262 261 260 259 258 258 257 256 256 254 255 253 254 253 254 254 253 253 253 253 253 254 254 254 255 256 257 257 257 258 259 260 260 259 259
257 258 262 266 262 262 259 259 258 257 258 256 255 256 257 257 256 257 257 258 259 259 259 260 260 261 263 263 262 263 262 262 262 263 263 263 264 265 265 265 266 266 266 267 266 265 264 264 263 261 261 260 259 259 258 258 258 257 255 255 254 254 254 252 253 252 253 252 252 253 253 253 254 254 254 254 255 256 257 259 260 260 260 260 260
257 259 262 264 262 259 258 257 256 256 256 256 256 255 256 256 256 257 256 257 258 258 260 260 261 262 263 264 266 266 262 261 262 262 262 262 262 262 263 263 264 264 265 265 265 265 264 263 261 260 260 259 259 258 258 257 257 256 255 255 254 254 254 252 252 252 253 252 252 253 253 253 253 253 254 255 259 259 257 258 259 259 260 260 260
256 257 257 258 259 257 257 257 257 260 259 259 258 257 258 257 257 256 257 258 259 259 259 259 259 259 263 265 266 267 266 263 262 261 262 262 262 261 262 262 263 263 263 263 264 264 263 262 261 260 259 259 258 258 257 257 256 256 255 255 254 254 253 254 253 252 252 252 252 252 251 253 254 255 256 259 254 254 255 257 258 259 259 259 259
257 256 256 258 257 257 257 258 258 257 256 255 255 258 257 256 255 256 256 257 258 258 258 258 258 258 259 263 263 265 262 261 261 261 261 261 261 261 261 261 262 262 262 262 262 261 261 260 260 259 258 258 258 258 257 257 256 255 255 254 254 254 253 254 253 253 251 251 252 252 252 253 254 252 252 253 254 255 256 257 258 258 258 257 258
256 256 257 257 257 257 257 257 256 255 254 256 256 255 255 256 257 257 256 257 257 257 256 256 256 257 257 258 260 259 257 258 258 258 258 258 259 259 259 260 260 260 260 260 260 259 259 258 257 257 257 257 257 257 257 257 256 255 255 254 254 254 253 253 253 252 251 250 251 252 251 251 253 252 253 255 253 254 255 256 257 257 257 257 257
254 255 255 254 254 253 253 254 254 254 256 256 257 258 258 258 257 257 257 257 256 256 255 255 255 254 255 254 255 256 256 256 256 256 256 256 256 256 256 256 256 257 257 256 256 256 257 257 256 256 256 256 256 255 255 255 255 255 255 254 254 254 254 253 253 251 251 249 251 251 251 251 251 251 252 253 254 254 255 255 256 258 258 258 257
255 256 256 256 256 256 256 256 257 258 258 257 257 257 256 256 254 254 254 254 254 253 253 253 253 253 253 253 253 253 254 253 254 254 254 254 253 254 254 253 254 253 253 254 254 255 255 255 256 256 256 256 255 254 253 253 253 253 253 253 254 254 254 252 249 249 250 249 250 249 251 252 251 252 254 253 254 255 255 256 257 257 257 257 257
258 258 258 258 257 256 256 255 254 254 253 252 251 252 251 251 251 252 253 253 253 253 252 251 251 251 250 250 251 250 251 251 251 251 252 252 252 252 252 251 252 252 253 253 249 252 252 253 254 254 254 254 254 253 252 252 251 252 252 252 252 252 252 251 251 250 251 251 251 249 251 252 252 252 254 254 254 254 254 255 256 256 256 257 257
255 255 255 255 254 253 251 250 251 253 250 250 250 250 251 251 251 251 251 251 250 250 249 248 247 248 249 249 249 249 249 249 250 250 250 251 250 251 250 249 251 251 250 251 249 250 250 250 251 251 252 252 252 253 252 252 251 251 251 251 251 252 252 253 251 250 250 250 250 250 251 251 251 251 251 252 251 252 253 253 255 256 256 257 257
250 250 250 250 250 250 250 250 251 250 250 250 250 250 250 250 249 249 248 248 248 249 247 248 247 247 247 248 248 248 248 249 249 248 250 250 250 249 250 249 249 250 249 250 251 250 250 249 250 250 250 250 250 250 251 251 251 250 250 250 252 254 254 254 253 251 253 252 251 251 250 250 250 251 252 252 252 252 253 254 254 256 257 257 257
248 249 249 249 249 249 250 249 250 249 250 250 249 248 248 248 247 248 247 247 247 247 246 247 248 248 247 248 248 249 248 248 249 250 250 249 250 248 249 249 249 249 249 249 250 250 249 247 248 248 249 249 249 250 250 250 251 251 251 251 254 255 255 255 255 255 254 251 252 251 251 251 250 250 250 251 251 252 253 255 256 256 256 256 255
249 249 249 249 249 249 248 248 247 247 246 247 247 246 247 247 248 246 247 247 247 247 248 247 247 247 247 248 248 249 249 248 250 249 249 250 249 249 249 249 249 248 249 249 249 249 249 249 249 250 250 250 250 251 251 251 251 251 252 254 254 254 255 255 254 255 256 255 252 252 251 251 250 250 251 251 252 253 255 256 256 256 256 256 256
Wind_Speed
9 8 8 8 10 10 9 8 9 8 8 8 9 8 7 7 7 7 6 6 7 7 7 8 7 7 6 6 5 4 4 3 3 3 4 4 3 4 3 4 4 3 3 3 3 3 3 3 2 2 1 3 2 2 3 3 2 2 1 2 2 3 3 3 7 12 14 1 3 6 7 7 7 7 11 9 10 9 10 9 10 10 9 8 9
10 9 8 9 10 10 9 7 8 8 9 8 8 8 8 8 7 7 7 6 6 7 8 7 7 7 6 6 5 4 3 3 3 3 3 3 3 3 3 3 3 3 3 3 2 2 2 2 2 2 1 2 2 3 2 3 2 1 2 2 3 3 3 4 6 8 15 13 6 5 7 6 8 5 9 13 12 10 11 9 9 9 10 9 9
9 9 9 10 10 9 9 9 8 9 9 8 8 8 7 7 6 8 7 6 5 6 8 8 7 7 6 5 5 4 3 3 3 3 3 3 3 3 3 3 3 3 2 1 1 1 1 1 1 1 1 2 1 2 1 2 1 2 2 2 3 3 3 3 5 9 11 13 8 9 8 9 8 10 9 9 10 10 11 10 10 9 8 10 10
10 9 9 10 10 10 10 9 10 9 10 8 9 8 8 7 7 7 7 6 7 5 6 7 7 7 6 5 4 4 4 3 3 3 3 3 3 3 3 3 3 2 2 1 1 1 0 0 1 0 1 1 1 1 2 1 2 2 2 2 2 3 3 3 4 6 9 12 11 7 9 10 10 7 9 9 9 10 9 11 10 10 10 9 10
11 10 11 12 11 11 11 10 11 10 10 8 9 8 8 8 7 7 7 7 7 7 6 5 7 6 6 5 4 4 4 3 3 3 3 3 3 3 2 2 2 1 1 1 1 1 0 0 1 0 1 1 2 1 1 1 1 1 2 2 2 3 3 3 5 5 7 10 11 7 7 8 8 8 8 10 11 9 9 10 10 10 10 9 8
11 11 11 12 12 12 12 11 11 11 11 9 10 9 9 8 8 7 8 9 7 7 8 7 7 7 5 5 4 4 4 4 4 3 3 3 3 3 3 3 2 2 1 0 0 0 0 1 1 1 1 1 2 1 0 0 1 1 2 2 3 3 3 4 4 5 7 9 9 12 7 9 12 8 6 10 13 14 13 11 9 8 9 10 8
11 12 12 12 12 12 12 12 11 11 10 10 9 8 9 9 9 9 8 9 9 8 7 7 6 6 5 5 5 5 4 4 4 4 3 3 3 3 2 3 2 1 1 0 0 0 0 1 1 1 1 2 2 2 2 2 2 3 3 3 3 2 4 5 7 8 8 10 11 10 12 11 10 16 13 10 12 11 13 13 13 8 8 9 12
12 12 12 12 12 13 12 10 10 10 9 9 9 9 8 8 8 7 8 8 8 8 8 7 5 5 5 5 4 4 4 4 4 3 4 4 3 3 3 3 2 1 0 0 0 0 1 1 1 2 2 3 2 3 2 2 2 3 3 3 3 4 6 7 7 8 9 10 10 11 9 9 9 8 9 9 11 11 8 11 15 13 11 11 10
13 13 12 12 12 11 10 9 8 9 9 9 9 9 9 8 8 8 8 7 7 7 7 7 7 6 4 5 4 4 5 5 4 4 4 4 4 4 3 3 2 2 0 0 1 1 1 1 1 2 3 6 6 4 5 5 2 2 3 3 4 5 5 5 5 6 7 7 9 7 9 9 9 10 12 11 10 13 12 14 15 14 13 13 9
14 13 13 13 11 10 10 9 10 10 11 11 11 10 9 9 9 8 8 7 7 7 8 7 7 7 7 5 4 4 5 4 5 9 8 5 4 4 4 3 2 2 2 2 1 1 1 2 3 6 6 5 5 6 7 8 8 5 3 3 4 4 4 5 5 5 7 9 9 9 9 8 8 7 10 12 11 11 14 14 13 16 13 13 12
14 13 14 12 11 10 11 11 11 12 12 11 9 10 9 8 7 7 7 7 8 8 8 9 8 7 7 6 6 5 5 4 9 12 12 11 6 4 4 3 2 3 3 2 3 2 3 3 3 4 4 5 3 7 8 8 8 9 9 9 7 5 4 6 7 7 8 9 8 8 7 10 13 11 10 12 13 17 13 13 16 13 14 13 16
14 13 12 11 11 12 12 12 12 12 11 11 10 10 8 8 8 8 8 8 8 7 8 8 8 7 6 5 6 6 5 7 12 13 12 12 9 5 4 3 3 3 3 3 3 3 3 3 3 3 3 3 3 3 5 8 9 10 10 10 10 12 11 8 9 8 8 9 10 10 11 14 14 12 12 14 15 13 14 14 12 17 14 17 9
13 12 12 12 12 12 12 13 12 11 11 11 10 9 10 9 9 9 10 8 7 8 9 9 8 7 7 7 7 6 5 9 13 14 13 13 13 9 4 4 4 3 3 3 3 3 3 4 3 3 3 7 4 3 3 4 8 12 13 13 13 14 14 15 15 11 9 10 11 13 11 13 15 13 14 16 17 18 15 13 12 13 14 14 14
11 12 12 12 12 12 12 12 12 12 10 10 9 10 10 11 10 8 7 7 9 8 7 8 8 8 8 8 7 5 6 9 14 14 14 14 13 10 5 5 5 4 4 3 3 4 4 4 3 4 3 3 3 5 4 5 6 7 8 8 8 10 13 14 15 18 15 11 11 12 14 13 14 16 16 16 16 14 14 14 14 15 15 16 17
11 12 13 11 10 10 12 11 12 10 10 10 10 10 11 9 9 9 9 10 11 11 11 10 9 7 7 6 6 7 6 11 14 14 14 14 13 10 5 5 5 4 5 6 6 6 5 5 4 4 4 4 5 6 6 7 7 8 8 7 6 5 4 6 7 8 8 8 11 13 13 13 14 16 15 14 16 16 14 16 16 16 16 15 11
13 12 12 12 12 12 12 12 10 10 10 10 11 11 11 11 11 9 8 7 6 5 5 5 8 8 7 7 6 8 6 13 15 15 15 15 15 6 5 6 6 5 5 6 5 4 4 5 5 5 5 5 9 13 10 7 7 9 6 4 4 5 5 6 13 14 12 11 10 11 12 14 18 17 17 15 13 12 12 11 9 9 10 10 10
14 14 13 12 13 12 12 12 12 12 12 12 13 13 12 11 9 7 9 9 10 9 10 9 8 8 8 8 9 8 6 11 15 15 15 16 11 5 6 5 5 6 6 6 5 5 5 5 6 6 6 6 11 13 13 11 7 4 4 6 7 6 5 5 11 15 16 17 17 18 20 22 22 22 22 23 17 15 11 10 8 8 10 11 11
14 13 13 12 13 12 13 13 13 12 12 14 14 12 10 7 9 9 11 11 11 11 8 7 6 8 9 10 10 9 8 10 15 15 16 17 13 7 6 5 6 6 6 6 6 6 6 12 10 7 7 7 13 14 13 12 5 3 5 8 8 6 6 5 5 7 13 13 14 17 18 18 18 18 18 19 20 16 9 10 11 10 10 10 13
13 14 14 13 12 12 11 12 12 13 13 14 12 12 12 13 9 8 8 7 9 6 7 8 7 7 8 9 9 10 8 9 15 16 17 17 13 7 7 5 6 7 6 7 6 6 6 8 13 11 9 11 15 14 15 10 2 4 6 6 7 7 6 6 8 7 4 6 7 7 8 10 9 8 10 18 18 15 10 10 10 10 11 11 12
13 11 9 10 11 11 11 12 13 13 14 12 11 12 9 7 8 10 8 7 7 7 7 7 9 9 8 8 9 10 9 8 9 17 17 18 19 9 7 7 9 9 7 7 6 6 7 7 9 14 15 15 15 14 12 11 6 5 5 5 5 9 6 7 4 4 6 5 7 7 8 7 7 7 6 8 9 10 10 10 10 9 9 10 11
8 10 9 9 10 11 10 12 14 13 13 13 11 8 7 9 7 8 9 7 6 6 8 7 7 7 6 7 8 8 9 9 9 16 17 18 20 16 8 10 8 7 7 8 7 7 7 7 6 12 15 14 14 14 12 11 11 6 3 3 4 8 10 1 4 7 4 5 6 7 6 5 5 4 5 6 7 8 8 10 9 9 9 9 10
8 7 8 9 10 10 11 11 11 12 9 7 8 9 7 7 8 8 7 6 8 8 6 7 7 7 6 7 8 9 8 11 8 13 18 19 19 21 11 11 10 7 7 7 7 7 7 6 6 10 15 14 14 13 13 12 13 5 3 11 14 14 5 3 1 2 3 4 6 6 6 5 6 5 5 5 6 7 8 8 9 10 9 9 10
7 7 8 9 9 10 10 11 11 8 9 10 11 10 8 8 8 8 8 8 8 8 8 7 7 8 7 7 7 8 8 9 15 11 16 19 20 20 21 13 17 11 9 9 9 8 6 7 8 13 15 15 15 14 13 14 8 5 11 13 12 11 3 2 4 3 3 4 5 6 7 5 6 6 6 6 7 8 8 8 9 10 10 10 11
6 7 8 9 9 9 9 10 9 8 10 9 10 10 9 9 8 8 9 9 9 9 8 7 7 8 9 9 8 8 8 8 12 17 14 19 18 20 22 23 21 12 10 8 7 7 7 8 8 15 15 15 16 15 14 10 6 10 12 12 12 2 2 2 1 1 4 4 5 6 7 5 4 5 5 6 7 8 10 9 9 9 9 10 11
7 7 8 8 9 8 7 8 9 9 9 10 10 10 8 8 9 7 8 8 8 10 9 8 10 10 9 10 10 9 8 8 8 13 19 17 19 20 21 23 23 22 13 9 9 8 10 14 16 16 17 16 17 15 8 6 9 11 11 12 4 2 0 0 2 1 3 5 5 6 6 5 5 6 7 7 8 8 7 8 7 8 8 9 10
7 8 7 7 8 7 8 8 8 8 9 9 11 10 11 11 10 9 9 10 10 10 10 9 10 9 10 11 10 10 7 7 9 8 9 13 14 19 20 21 22 24 21 11 14 17 16 17 18 18 17 16 6 1 3 3 7 11 11 7 1 1 1 2 1 2 4 4 5 6 7 6 6 6 7 7 6 7 7 8 9 9 8 9 11
7 5 7 7 5 6 9 8 7 7 7 7 7 7 8 9 9 9 10 11 10 10 10 10 11 10 12 12 11 7 7 7 8 7 8 8 9 9 11 13 20 20 15 11 13 11 13 13 10 12 9 10 10 8 4 4 4 3 2 2 2 2 3 2 4 4 4 5 6 6 6 6 6 6 6 6 6 6 5 7 7 9 9 9 10
6 6 5 4 5 5 7 7 8 7 7 8 9 8 7 9 10 12 13 14 13 13 12 11 13 13 13 11 7 5 8 7 8 10 10 9 9 9 9 7 8 8 9 8 7 6 4 7 11 6 3 0 1 2 0 0 2 5 5 4 4 4 5 6 6 3 3 3 4 5 6 5 6 6 6 6 6 6 5 6 6 9 8 9 9
5 5 5 5 6 4 6 6 7 7 7 7 8 8 10 11 12 11 9 8 10 12 11 11 11 9 8 7 8 8 7 10 12 8 9 12 11 9 9 9 8 8 10 11 5 3 4 6 6 7 6 6 4 4 2 2 4 5 5 4 5 4 3 1 3 6 5 3 4 5 6 5 7 6 6 6 6 5 4 6 5 6 8 6 8
5 6 6 7 6 7 7 7 6 7 7 8 8 7 7 9 9 9 8 8 13 14 10 10 7 6 7 8 8 11 12 9 6 15 18 16 17 17 16 15 14 11 12 18 11 6 7 7 8 8 7 7 7 7 6 5 6 6 5 5 5 4 4 4 4 6 4 4 4 4 5 5 7 6 6 6 7 5 5 7 7 6 7 8 9
5 5 6 7 7 7 6 6 6 6 6 6 6 7 7 7 12 16 13 9 12 15 18 18 15 13 10 8 8 16 15 10 12 15 18 20 21 21 19 19 19 19 18 12 11 9 8 9 8 7 8 8 8 8 6 6 7 6 6 6 4 5 5 5 5 5 5 4 4 4 5 5 6 6 6 6 7 7 6 4 4 5 6 8 9
6 6 6 5 6 5 6 6 5 6 6 5 6 6 6 7 8 9 14 16 16 17 17 18 18 18 18 15 9 7 13 16 15 15 17 18 19 19 20 20 19 19 19 19 10 9 8 9 8 8 8 8 9 7 6 6 7 7 6 5 6 4 6 6 4 5 5 4 4 5 5 5 5 6 6 6 7 7 6 7 5 6 7 7 8
5 4 4 4 4 5 5 5 6 6 6 6 6 5 7 7 8 8 5 10 16 18 18 19 19 18 19 20 18 13 11 13 17 17 16 17 18 18 19 20 19 20 20 15 11 10 8 9 9 8 8 9 8 7 7 7 7 7 7 7 7 6 5 5 3 5 5 5 4 5 5 5 6 7 7 7 6 7 6 6 6 5 6 8 9
4 4 4 5 5 5 6 6 6 6 5 6 6 6 6 6 7 6 5 5 6 10 14 18 19 19 19 19 17 17 16 16 15 16 16 16 18 18 18 14 20 22 19 12 10 9 7 8 8 8 8 8 7 7 7 7 6 6 6 7 6 5 5 3 4 6 5 5 6 5 5 5 6 6 6 6 5 5 6 6 6 6 7 8 9
2 3 4 4 5 5 5 5 5 5 5 5 5 5 6 5 5 6 6 6 7 7 4 6 11 16 13 12 16 19 19 18 17 16 16 16 16 17 17 12 12 11 12 11 9 9 8 8 8 8 7 8 7 7 7 6 6 6 7 7 6 5 4 3 5 5 5 5 5 5 5 6 6 6 5 6 6 6 6 6 5 6 7 8 8
1 2 2 2 2 2 3 4 4 5 5 5 5 5 5 4 5 6 5 5 6 5 4 4 4 5 12 14 14 16 19 19 17 16 17 18 18 18 11 10 8 8 8 8 7 5 5 6 6 7 6 7 6 6 6 6 7 7 7 7 6 6 6 5 6 5 5 6 6 5 5 5 5 6 6 6 6 7 6 6 6 6 7 7 7
0 1 1 1 1 2 2 2 3 3 4 3 3 3 3 4 4 3 5 5 5 3 4 3 1 3 3 2 4 6 7 7 12 15 17 17 19 13 8 7 7 7 7 8 6 5 6 6 5 5 5 6 6 6 6 6 6 6 6 6 6 6 6 5 5 6 6 6 6 5 4 6 6 5 5 6 6 6 6 6 6 8 9 10 10
0 0 1 1 1 1 2 2 2 3 2 3 3 5 3 4 3 4 5 4 3 3 2 1 2 4 4 3 5 3 3 7 8 7 7 7 6 5 4 4 4 5 6 5 6 5 7 6 5 7 7 6 6 6 6 6 6 6 7 6 6 6 7 6 7 6 5 6 5 5 5 5 5 6 5 5 6 6 6 6 6 8 8 8 6
1 1 2 2 3 2 2 2 2 2 1 2 2 3 4 2 1 2 2 2 2 2 2 2 2 3 3 1 2 3 3 3 2 4 4 4 4 4 4 4 5 6 6 6 5 6 7 8 6 6 6 6 6 6 6 6 6 6 6 6 6 6 6 5 6 6 5 6 6 5 5 6 5 5 5 5 6 6 6 6 7 7 7 7 7
1 2 2 5 5 3 3 3 2 2 3 2 1 1 1 1 2 2 2 2 3 2 2 3 3 3 2 0 1 1 1 3 3 4 4 5 5 6 5 6 6 6 6 5 5 5 5 5 4 5 6 6 6 6 6 6 6 6 6 6 6 7 7 6 6 6 6 6 6 6 5 6 6 5 5 6 6 6 6 6 6 6 7 7 7
2 2 3 3 5 4 4 3 2 1 1 2 1 2 1 2 1 2 1 1 1 2 2 2 2 0 1 3 6 6 4 4 4 4 4 4 4 5 5 6 6 7 6 6 6 5 5 5 5 5 5 5 5 6 5 6 6 6 6 7 6 6 6 6 6 6 6 6 6 6 6 5 5 5 6 6 7 6 5 6 6 7 7 6 7
4 4 4 4 4 3 4 4 4 3 3 3 2 1 2 2 1 2 3 2 3 3 3 1 1 0 4 7 7 9 5 3 5 5 5 5 5 5 5 6 6 6 6 7 6 7 6 5 5 5 6 6 5 6 5 6 6 6 7 6 7 6 6 7 6 6 6 6 6 6 5 5 5 6 7 6 4 5 6 6 6 7 6 6 7
5 4 4 4 3 3 3 2 2 3 2 2 1 2 2 1 1 2 1 1 1 1 0 0 0 0 1 6 7 9 5 4 3 2 2 3 3 4 4 5 5 5 6 6 6 6 6 6 6 5 5 6 6 6 7 7 7 7 6 7 7 7 7 7 6 6 6 6 6 5 5 6 6 6 6 5 5 6 6 7 7 6 7 6 6
4 4 5 4 3 3 3 3 2 2 1 1 1 2 2 1 1 1 1 0 0 0 0 0 0 1 1 4 5 5 4 4 4 4 4 4 4 4 4 4 5 5 5 5 6 6 6 6 6 5 5 5 5 5 6 6 6 7 7 7 7 7 7 7 7 7 7 6 6 6 6 5 5 6 5 6 5 6 6 6 7 7 7 6 6
3 3 3 3 3 3 3 2 2 2 3 3 2 2 1 1 1 0 1 0 0 1 0 1 1 1 3 3 3 4 4 4 5 5 5 4 4 5 5 5 6 7 7 6 5 5 5 5 5 5 5 5 5 6 5 5 5 6 6 7 7 8 8 8 8 6 6 6 6 5 5 5 5 5 6 5 5 5 6 7 6 7 7 6 6
4 3 4 3 3 3 3 3 2 2 2 1 1 0 0 0 0 0 1 1 1 1 1 1 1 1 2 3 3 4 4 4 4 5 6 5 5 5 5 5 5 6 6 6 6 5 5 5 5 5 6 6 6 5 5 5 5 5 5 6 7 8 7 5 3 4 6 5 6 5 5 5 5 6 7 6 5 5 6 7 7 6 6 7 7
4 3 2 2 2 1 2 2 2 1 2 1 1 0 0 1 1 1 2 2 1 2 1 1 2 2 3 3 4 4 5 5 5 6 6 6 6 6 6 5 6 6 6 6 4 6 6 6 6 6 6 6 6 6 5 5 5 5 5 6 6 7 6 5 5 5 6 6 5 4 5 5 6 5 7 6 5 5 6 7 7 8 7 6 6
3 3 3 3 2 2 1 1 1 2 1 1 1 1 1 2 1 2 2 2 1 2 2 2 3 4 4 5 4 4 5 6 5 6 5 6 6 6 6 5 6 6 6 7 6 6 5 5 6 5 6 6 6 6 6 5 5 5 5 6 6 6 7 6 6 6 5 5 5 5 6 6 6 6 5 5 5 5 6 7 7 7 7 6 7
3 2 2 2 1 1 0 0 0 0 1 1 1 1 3 1 2 2 2 2 3 3 2 4 5 4 4 5 5 5 6 6 6 5 6 6 6 6 6 6 6 7 7 7 7 6 6 6 6 6 6 6 6 5 5 5 6 6 6 6 7 11 12 10 7 6 7 6 6 6 5 6 6 6 6 5 6 6 6 7 7 8 7 6 6
1 1 1 1 1 1 1 0 0 0 1 1 1 2 1 2 2 3 3 3 4 4 4 4 6 5 5 5 6 6 5 5 6 6 6 6 6 5 6 6 6 6 6 6 7 7 6 5 5 5 5 5 6 5 5 6 6 6 6 6 9 12 12 13 13 12 8 6 7 6 7 6 6 6 6 6 6 7 8 8 7 7 7 7 6
2 1 1 0 0 0 0 1 1 1 1 1 2 2 3 4 5 4 3 4 5 5 5 5 5 6 4 6 6 6 5 5 6 6 6 6 6 6 6 6 6 6 6 6 7 6 6 6 5 5 5 5 5 6 6 6 6 6 8 11 13 13 13 13 9 10 13 10 5 6 6 7 6 6 6 6 7 8 10 9 8 7 6 6 6
Wind_Direction
154 156 149 145 143 148 148 148 147 144 141 143 139 143 144 144 148 149 140 154 160 152 137 129 125 124 124 120 120 124 123 120 113 107 108 109 117 117 101 94 89 74 84 52 55 77 75 63 25 1 64 58 43 19 4 337 346 348 349 20 341 316 317 279 280 287 294 293 330 323 324 329 324 334 320 322 318 316 314 308 309 314 313 311 310
159 155 152 150 151 148 149 147 146 145 143 144 143 147 151 151 153 152 153 162 161 147 133 127 124 124 122 122 124 133 137 130 123 109 118 117 103 112 101 96 99 86 92 76 48 72 82 71 12 0 23 73 47 9 349 342 351 22 351 19 336 318 303 300 286 282 291 307 330 325 316 333 318 331 321 321 318 315 313 313 311 309 310 309 306
156 156 153 153 153 152 150 153 151 150 147 149 150 153 153 154 159 155 156 156 151 142 135 128 128 124 121 126 132 141 138 130 137 126 138 131 124 105 117 118 117 107 93 109 100 99 68 71 341 5 5 36 16 349 344 331 2 41 19 353 340 309 309 300 300 295 297 297 326 324 327 322 325 320 319 306 304 306 307 310 311 308 302 304 303
156 154 153 153 153 153 157 155 154 154 153 156 156 158 156 159 159 154 157 151 144 136 127 129 125 127 127 134 145 144 142 144 149 158 154 142 135 131 122 111 121 135 143 163 149 123 145 105 301 15 15 37 336 342 321 20 64 41 1 331 328 309 310 301 294 292 298 300 313 329 319 319 317 316 306 299 300 305 304 301 298 298 298 296 297
159 160 158 156 161 161 162 161 159 160 157 159 162 161 162 159 160 159 153 149 145 136 128 128 128 130 140 153 159 157 156 164 153 159 159 149 144 144 135 134 126 136 162 167 163 140 137 180 228 306 16 17 313 313 308 78 60 20 335 300 294 289 290 284 284 278 285 292 300 308 312 304 303 306 305 309 309 300 297 296 300 298 297 289 289
163 160 163 162 166 168 167 166 167 164 162 163 166 167 164 163 162 166 161 151 147 143 142 146 145 145 150 161 160 164 168 168 171 165 156 145 149 150 152 147 143 136 131 142 136 154 158 249 253 229 275 267 272 272 188 180 270 294 290 276 265 274 273 276 273 285 291 293 301 310 314 318 320 312 314 311 311 313 311 302 294 292 294 298 290
165 166 169 170 170 174 173 172 167 166 166 166 165 167 169 168 166 166 168 156 151 149 148 144 144 148 160 157 163 165 171 168 171 173 164 164 163 159 139 135 124 127 124 128 92 1 265 239 243 236 236 247 247 242 212 241 249 260 247 243 254 252 292 306 309 306 302 302 301 298 303 303 301 309 313 307 297 297 303 305 303 296 289 292 300
169 172 173 176 177 177 177 170 167 167 164 164 169 171 170 170 168 164 158 157 153 151 152 150 147 149 162 163 167 163 168 173 178 176 173 170 161 154 152 147 141 128 115 61 28 274 267 261 252 254 238 244 223 228 220 252 238 242 241 233 241 269 293 291 293 294 293 292 288 297 294 287 294 276 289 302 305 303 299 301 301 309 304 294 289
172 175 178 180 183 177 171 168 163 161 163 166 171 174 175 172 166 165 166 158 152 148 142 143 148 156 157 166 170 172 178 188 183 176 174 177 168 160 147 148 148 158 159 241 262 232 274 273 267 265 251 241 255 287 294 291 262 250 258 219 235 252 268 275 278 285 285 284 289 279 285 285 288 300 307 309 302 301 303 302 290 293 301 298 287
174 179 183 185 179 175 171 168 168 167 168 174 176 176 175 172 170 168 166 158 149 147 146 151 157 165 168 173 177 184 191 191 196 195 182 169 164 161 152 158 163 171 191 216 255 251 247 261 270 279 278 283 287 290 291 289 291 290 265 239 250 256 258 266 277 276 285 291 290 291 290 282 292 281 283 283 282 282 299 302 295 305 302 298 289
182 181 186 182 176 173 172 176 171 175 177 175 176 173 173 173 172 169 162 158 157 155 156 163 169 169 172 175 187 196 196 190 205 209 201 188 168 167 169 182 175 187 198 204 217 238 264 253 251 262 270 280 282 280 282 287 293 295 294 293 291 285 288 291 283 279 285 286 289 292 279 287 299 296 285 296 308 307 300 303 303 301 305 305 310
184 186 183 177 178 178 179 174 176 179 176 181 176 177 172 171 175 173 166 164 166 159 167 174 169 169 168 177 192 199 198 200 209 211 206 197 177 172 174 178 189 197 200 205 212 215 233 247 249 240 237 224 228 239 270 287 293 292 290 290 286 284 284 284 292 298 295 298 303 300 301 296 294 299 303 311 311 308 305 301 300 301 299 301 296
184 183 183 183 183 182 180 179 181 181 184 179 176 173 175 177 177 173 179 175 158 171 181 169 178 174 173 185 198 198 194 207 212 212 209 206 198 178 177 184 193 200 206 209 212 222 222 230 243 248 241 261 272 268 255 263 280 282 278 275 274 279 288 293 295 297 303 299 296 294 297 304 306 308 313 311 309 304 300 301 296 300 302 307 310
185 187 186 189 185 182 182 182 185 186 180 176 176 179 181 188 183 179 166 159 171 177 176 179 176 182 186 190 195 195 197 208 213 213 210 207 206 198 167 195 204 205 212 214 222 226 219 214 231 251 248 248 246 249 252 256 256 259 259 256 253 260 272 285 298 298 294 290 292 293 303 307 304 307 310 309 310 310 314 311 320 315 314 309 311
189 190 192 190 182 183 186 187 189 183 179 179 181 187 189 185 182 181 176 178 180 186 184 184 189 184 187 186 188 200 205 206 214 216 211 209 208 201 174 201 204 212 218 222 227 225 221 226 224 229 235 245 245 242 240 245 250 250 252 256 254 249 260 280 288 298 302 300 297 296 299 303 301 305 310 316 315 314 315 313 313 309 300 295 284
193 192 195 189 188 188 187 189 187 182 181 182 186 192 193 190 187 182 178 185 189 176 192 187 182 186 186 182 187 209 210 206 212 217 213 209 210 196 180 200 209 213 211 213 214 211 215 221 228 234 237 240 251 262 263 256 254 257 261 263 267 281 272 286 303 304 301 298 296 295 299 305 311 314 316 317 319 316 309 305 297 295 305 305 297
197 197 195 190 191 190 188 187 189 187 186 186 194 196 192 193 191 179 181 189 181 190 193 191 187 181 182 187 195 210 206 209 211 215 214 210 207 183 194 199 207 211 218 213 214 215 214 219 222 223 231 234 251 259 260 264 261 256 275 290 290 277 281 298 301 302 302 299 300 308 313 315 316 318 321 322 321 323 320 313 311 318 305 304 310
199 194 196 194 192 189 190 189 190 190 188 195 198 199 195 195 193 184 188 186 192 200 188 186 187 186 186 192 197 200 207 209 211 215 214 212 204 188 194 193 212 215 217 219 214 216 213 224 226 218 222 229 248 255 257 260 252 264 296 288 278 289 292 296 292 280 291 305 316 316 316 316 321 324 324 326 330 335 327 318 313 308 306 314 315
195 196 200 195 192 191 190 191 193 192 195 200 197 196 196 197 191 183 200 194 199 180 183 187 192 195 198 196 192 199 208 209 213 215 215 214 209 177 192 197 214 221 213 218 217 208 220 227 234 232 225 232 244 250 253 251 260 276 271 267 279 285 289 300 291 298 329 332 318 321 313 319 320 319 320 329 332 333 325 317 324 328 324 321 319
199 199 193 188 190 191 192 193 196 195 200 200 198 203 193 172 182 189 197 195 190 186 188 193 194 202 194 190 201 204 204 211 214 215 215 215 212 190 183 195 217 216 210 210 211 224 213 219 232 235 238 240 246 250 252 252 262 259 258 262 281 288 292 276 287 342 331 331 313 312 305 308 310 313 315 320 328 331 332 332 331 327 320 317 312
188 194 187 188 192 195 195 195 198 202 200 200 196 188 179 187 178 185 195 192 185 188 193 199 204 207 195 203 203 212 207 207 213 214 217 216 215 206 189 208 215 209 210 211 209 209 214 218 210 230 235 238 244 244 244 256 263 264 260 252 258 275 284 26 348 353 336 319 311 305 302 303 305 314 315 321 328 330 327 324 320 318 313 308 305
185 180 184 191 195 196 197 201 201 202 194 173 176 191 191 180 187 190 185 186 195 201 197 199 205 211 208 209 213 218 216 212 205 219 219 220 218 216 198 205 205 203 213 215 214 215 211 214 215 227 233 236 237 237 247 257 261 254 263 278 282 285 309 101 7 10 333 312 305 302 306 312 315 322 320 319 319 318 314 313 317 315 309 304 303
174 180 187 193 196 197 199 197 197 190 185 184 184 193 182 182 187 178 180 187 197 205 206 203 204 215 218 223 222 222 218 221 217 217 223 222 221 220 220 208 212 210 208 216 212 214 210 216 220 230 235 236 233 234 245 252 264 277 273 275 279 287 46 22 31 345 318 300 299 301 303 309 316 316 320 316 315 313 309 306 301 306 310 308 306
166 180 193 198 197 199 199 196 194 189 186 181 187 188 186 187 181 187 187 187 195 206 214 203 208 219 220 227 226 222 218 213 225 222 221 224 222 221 224 224 215 210 209 217 212 210 211 214 209 229 239 235 232 239 242 246 255 264 271 275 275 330 84 48 356 296 291 298 293 292 296 296 297 301 306 308 307 308 304 300 298 297 299 298 299
172 187 195 198 198 200 190 192 193 192 188 179 185 191 187 176 187 194 181 196 200 209 215 197 210 218 221 228 228 221 214 213 219 227 225 224 222 222 225 227 226 220 218 215 213 212 217 217 224 234 238 234 236 240 236 245 266 274 274 268 278 96 82 170 251 270 299 285 281 280 282 282 281 282 290 301 300 299 295 292 291 289 288 288 288
178 196 195 196 199 182 187 198 195 194 187 189 195 192 185 184 192 187 188 202 204 210 213 201 215 217 225 231 230 223 208 206 217 220 229 230 229 226 226 230 232 229 227 219 216 222 226 230 232 234 234 238 240 143 154 200 252 263 267 277 88 223 176 216 246 252 259 268 271 279 280 290 293 294 298 296 298 294 297 302 310 311 312 312 311
189 190 197 198 188 182 191 193 192 190 190 193 195 189 185 188 191 190 196 201 207 212 214 208 215 217 226 231 229 214 208 209 212 211 214 216 222 221 223 231 234 233 235 233 233 231 232 231 229 235 229 207 211 226 210 230 265 289 296 274 254 222 221 204 225 237 250 255 272 275 281 284 292 302 302 301 296 292 290 299 305 306 314 314 311
183 195 195 187 189 190 198 190 182 191 196 189 192 198 199 191 193 201 198 201 202 213 211 214 216 217 223 229 220 207 221 215 213 208 209 206 210 210 211 211 221 224 226 224 222 224 214 233 239 253 244 15 64 50 351 122 225 246 252 245 237 237 236 250 259 238 248 246 265 284 290 297 297 294 296 295 286 288 295 301 303 306 312 313 312
170 175 182 174 195 190 192 187 194 193 199 207 221 209 196 196 207 222 225 203 204 206 208 221 225 227 224 221 202 225 226 224 225 205 214 207 202 196 198 205 207 219 224 222 214 211 211 226 229 236 223 226 231 238 257 280 265 246 251 263 263 259 261 235 250 261 252 257 268 270 280 291 292 290 288 290 289 293 300 297 294 300 307 305 299
177 189 184 187 191 184 194 198 194 194 195 203 211 243 254 224 220 218 226 206 219 228 219 225 220 194 215 226 198 213 226 231 201 208 215 213 213 209 208 205 206 210 218 223 215 208 215 214 218 217 221 216 224 227 231 232 250 263 255 242 238 238 246 249 247 256 254 248 254 270 280 286 287 291 291 291 295 296 295 309 304 303 307 311 310
198 203 187 201 193 191 191 196 201 200 203 200 204 217 242 259 239 232 229 219 226 229 232 236 233 216 202 232 225 228 238 236 213 210 212 213 213 214 212 211 212 213 213 212 223 215 207 215 217 210 217 215 216 220 213 217 231 234 249 242 233 236 247 248 251 247 252 254 262 261 267 270 276 282 289 293 296 301 305 293 285 296 295 305 308
205 214 207 207 194 193 193 193 187 196 207 200 201 208 221 240 265 251 242 237 234 234 237 239 240 239 231 224 210 231 236 235 225 217 218 219 218 217 217 216 216 214 213 209 217 222 209 212 213 211 208 214 219 214 211 213 220 221 228 240 246 226 220 239 242 230 247 253 265 272 265 262 266 276 279 286 294 298 303 305 307 306 305 302 298
221 226 210 201 200 195 188 191 195 194 198 197 207 199 209 220 240 257 260 249 244 241 242 242 243 243 244 247 238 217 212 222 228 228 225 223 222 222 221 221 220 217 215 218 218 217 208 211 213 209 202 215 213 208 215 212 213 217 212 218 234 235 213 225 245 250 248 243 246 255 264 272 273 278 279 284 290 292 299 300 299 295 299 304 303
225 217 209 204 194 202 195 197 195 203 200 199 200 198 215 215 230 238 247 275 284 261 248 243 244 246 247 246 246 244 236 229 229 229 230 230 227 224 222 225 228 226 223 223 226 222 200 203 213 212 208 211 209 207 215 217 215 217 220 222 224 233 234 216 227 241 249 256 262 266 270 270 269 274 283 283 278 277 288 293 299 305 308 306 303
236 240 229 201 197 204 200 195 196 195 192 197 199 203 213 214 213 221 223 225 233 242 247 252 249 243 244 250 254 252 249 242 236 232 234 231 227 226 228 231 231 234 233 233 224 221 211 208 211 213 205 211 210 203 218 216 218 216 219 224 224 224 231 225 232 239 244 252 252 256 256 262 265 265 271 286 293 297 293 295 296 297 300 302 304
236 237 257 246 206 196 188 193 189 189 195 203 200 207 202 196 208 221 223 228 233 244 268 247 238 259 258 258 260 256 250 246 238 232 232 231 230 228 230 230 228 227 227 235 228 217 212 222 216 220 204 215 203 208 214 217 219 222 219 213 222 219 218 226 231 238 245 240 248 253 260 260 266 274 277 273 268 275 288 294 298 300 296 292 299
184 253 279 268 217 195 188 182 190 193 196 186 180 186 189 200 211 207 215 228 237 248 231 269 317 298 276 350 356 331 330 281 258 249 240 235 233 231 232 230 228 229 226 230 229 220 224 223 201 218 207 215 211 208 208 220 220 221 223 215 213 216 223 219 224 223 241 248 245 243 251 264 267 265 265 276 283 279 281 288 294 296 296 297 307
136 203 239 239 162 135 126 165 191 183 166 164 173 173 190 195 202 204 213 228 231 229 240 267 194 198 216 250 37 43 321 324 340 339 340 324 301 283 268 250 226 223 233 225 220 216 231 233 203 214 218 210 219 208 211 221 215 214 218 223 215 217 229 230 240 237 230 239 252 255 256 261 260 266 271 273 277 284 284 287 292 292 291 295 301
13 9 140 183 149 124 131 110 103 105 114 120 151 155 181 178 180 189 211 202 224 228 212 205 207 209 254 304 340 352 14 324 304 263 272 271 279 291 296 285 266 253 245 241 230 224 231 235 222 213 218 214 218 215 210 218 209 216 214 216 221 225 231 238 234 236 241 246 254 251 249 256 262 262 259 266 276 275 280 282 283 285 295 301 297
42 10 24 65 58 77 76 88 87 93 109 114 90 110 115 138 175 188 167 166 200 190 188 191 205 201 197 162 277 313 235 248 254 267 269 270 271 280 280 274 271 266 264 260 248 232 236 241 223 217 218 216 214 215 213 212 211 215 208 209 212 224 226 223 226 229 236 236 240 247 245 252 259 264 267 260 264 271 273 280 286 296 293 289 297
32 25 45 70 86 68 61 57 60 78 79 82 120 113 136 121 144 133 145 165 179 183 209 206 226 230 214 242 253 237 215 244 250 245 242 251 262 270 276 279 282 283 282 277 272 260 244 236 217 216 220 218 214 219 216 213 213 208 210 213 213 222 228 228 225 229 233 235 238 244 246 247 255 264 273 269 267 276 282 291 292 284 282 286 292
39 39 42 44 55 66 69 51 55 50 67 82 87 110 111 139 141 141 168 171 183 185 193 215 191 252 277 266 267 269 262 211 222 238 246 241 245 248 249 258 264 271 276 275 275 272 262 246 236 219 222 221 215 224 216 220 213 214 214 213 215 218 224 231 229 227 226 234 237 239 243 246 250 247 255 273 283 287 284 280 276 280 282 286 289
40 42 42 50 51 61 80 79 79 70 61 67 59 63 89 104 106 121 115 105 120 125 117 38 331 39 294 289 297 299 321 339 341 322 296 285 275 271 263 260 261 261 263 269 270 268 263 254 248 233 225 227 219 217 216 219 211 215 212 214 216 216 223 231 230 229 226 229 237 241 240 247 255 261 266 267 268 271 272 280 282 282 279 281 282
48 46 47 56 56 50 54 79 70 76 110 119 103 86 92 76 81 88 105 106 124 114 135 289 294 315 310 311 317 324 322 311 308 306 306 299 296 293 296 298 297 291 281 275 270 260 252 251 246 242 233 233 229 227 225 222 208 208 209 211 217 219 222 227 227 227 219 224 233 238 240 242 248 252 263 270 271 275 274 277 280 277 280 277 282
45 49 49 50 43 61 36 42 62 65 61 66 57 61 65 82 78 57 87 124 13 3 340 278 306 293 294 299 294 284 285 286 288 291 289 285 283 280 281 285 289 295 300 300 296 291 274 262 248 243 242 239 233 235 235 228 219 215 212 207 213 222 224 222 224 219 203 209 229 235 238 233 247 250 257 258 263 265 270 269 270 281 283 285 286
42 47 51 55 48 49 50 41 35 44 53 30 85 41 33 67 38 352 322 333 317 291 282 301 289 295 283 279 280 282 278 287 284 281 281 284 279 279 275 275 276 277 275 276 282 279 271 265 263 261 253 254 250 243 239 235 231 227 224 219 222 229 232 226 206 198 204 207 220 223 235 240 245 242 252 253 253 262 267 273 270 266 266 278 280
34 55 43 58 54 48 56 54 49 41 42 28 39 35 353 337 324 338 335 311 293 288 288 282 296 282 283 276 279 279 282 283 281 284 280 278 278 276 280 280 280 277 276 274 269 265 264 260 254 250 252 254 254 249 241 236 234 234 231 231 234 238 239 231 217 216 219 217 212 213 228 234 244 241 258 264 272 271 274 277 273 274 270 271 273
42 45 43 49 54 68 30 50 44 22 37 8 11 333 330 324 342 332 311 306 308 296 290 287 284 275 275 277 270 266 268 266 266 266 270 271 271 274 275 276 275 273 277 277 273 267 260 259 256 250 248 248 246 247 243 238 238 236 239 237 234 234 232 226 225 224 221 216 209 218 223 230 235 239 242 242 250 253 261 263 271 271 270 270 274
57 63 55 47 54 56 91 55 85 74 248 274 295 306 302 302 288 286 289 286 281 274 260 267 269 264 256 256 258 263 260 266 267 272 269 269 271 273 271 270 272 273 272 272 271 267 261 255 253 250 248 251 250 248 250 245 243 240 239 237 239 241 239 233 227 229 216 211 216 219 222 223 232 236 238 243 249 250 255 259 258 262 268 272 274
65 60 76 47 61 345 20 104 80 221 285 266 242 268 281 284 286 281 276 274 274 272 267 257 258 259 256 269 271 271 269 268 270 268 270 270 270 268 272 271 272 270 268 267 270 269 264 257 251 250 248 247 247 246 244 244 246 244 244 240 244 245 244 242 241 237 226 213 213 212 210 223 224 232 233 239 245 249 252 256 261 267 269 269 269
43 56 51 80 78 0 351 335 300 305 287 270 264 258 266 267 264 264 264 261 260 265 265 260 260 267 267 259 263 268 271 268 264 266 270 272 274 272 271 271 272 273 272 270 271 270 265 264 259 253 248 246 243 243 240 240 243 243 245 247 247 245 244 244 239 239 239 235 209 205 212 217 222 230 236 236 237 239 246 251 253 254 260 264 265